Погода Лынтупы

Погода Лынтупы : погода сейчас, прогноз погоды и архив. Всё, что Вы хотите узнать о погоде Лынтупы!

Хотите узнать прогноз погоды Лынтупы? Тогда Вам сюда: Погода Лынтупы

Поиск расширенной информации на нашем сайте:

Другие новости

Новости СМИ2

Главная страница сайта

Новости сайта

02.10.2013

Напоминаем, что на нашем новом сайте вы можете получить высокодетализированные прогнозы погоды по пунктам России, СНГ и мира (включающие важные для авиации метеовеличины, такие как направление и скорость ветра, видимость, явления погоды, количество и форма облачности, нижняя и верхняя граница облачности), а также ознакомиться с разнообразными материалами по авиационной метеорологии и подборкой полезных ссылок на эту тему.

Сайт Метеоцентр.Азия посвящён разработке технологий оптимизации авиаметеорологического обслуживания, включая проектирование и перспективное создание нескольких автоматизированных авиаметеорологических систем:
- система выпуска высокодетальных прогностических карт явлений погоды для нижнего воздушного пространства по России и ближнему зарубежью;
- система верификации прогнозов TAF (выпускаемых синоптиками официальных АМСГ РФ и ближнего зарубежья) и AUTOTAF (выпускаемых сайтом Метеоцентр.Азия) - выявление ошибок, онлайн-сопоставление с фактической погодой METAR, автоматическое внесение коррективов в прогнозы при резком отклонении фактической погоды от прогноза, подсчёт оправдываемости прогнозов по элементам и в целом;
- система обработки, анализа и отображения авиаметеорологической информации для применения провайдерами метеорологической информации.

Рекомендуем: Аренда опалубки колонн стойки для опалубки.

Погода Лынтупы - сегодня

Время (UTC), дата Ветер
(°,м/с) 
Видим.   Явления Облачность Т
(°С)
Тd
(°С)
f(%) Тe
(°С)
Pmin
(гПа)
dP
(гПа)
Po
(мм)
O2
(г/м3)
Тmin Tmax R s Состояние
почвы
06 17.02.17 230 (ЮЗ) 0400 м  туман  ?/?  
+0.7 +0.7 100 -1  1015.9  -0.8  742  298  -2.5      10  равномерный
мокрый или
старый снег
100% 
09 17.02.17 230 (ЮЗ) 0200 м  туман  ?/?  
+1.5 +1.5 100 1015.2  -0.6  742  297           
12 17.02.17 240 (ЮЗ) 0800 м  туман  ?/?  
+1.9 +1.9 100 1014.6  -0.5  741  296           
15 17.02.17 260 (З) 3{10}  3600 м  дымка{туман}  10/10 240 м 
[St]
+1.7 +0.6 92 1014.4  -0.3  741  297           
18 17.02.17 250 (З) 3800 м  слаб. морось{туман}  10/10 200 м верхняя 
[Frnb|Cs]
+1.7 +0.9 94 +1  1014.7  0.3  741  297      0.0   
21 17.02.17 250 (З) 3500 м  слаб. морось  10/10 210 м 
[St]
+1.5 +0.7 94 +2  1015.4  0.7  742  297           
00 18.02.17 250 (З) 3700 м  дымка{морось}  10/10 210 м 
[St]
+1 +0.5 96 +2  1015.3  -0.1  742  298           
06 18.02.17 260 (З) 0500 м  туман  ?/?  
+0.7 +0.7 100 1016.2  742  298  +0.6    0.0  равномерный
мокрый или
старый снег
100% 
09 18.02.17 270 (З) 0800 м  туман  ?/?  
+1.3 +1.3 100 +1  1017.1  743  298           
12 18.02.17 280 (З) 10 км  {туман}  10/10 100 м 
[St]
+1.3 -0.1 90 +1  1018  0.9  744  298           
15 18.02.17 280 (З) 15000 м    8/8 270 м 
[St]
+0.9 -1.4 85 1018.5  0.5  744  299           
18 18.02.17 270 (З) 10 км    10/10 240 м 
[St]
+0.3 -1.4 88 -1  1019.9  1.1  745  300    +1.7     
21 18.02.17 220 (ЮЗ) 10 км    10/10 240 м 
[St]
+0.7 -0.7 90 -1  1019.8  -0.1  745  299           
00 19.02.17 250 (З) 4200 м  дымка  10/10 120 м 
[St]
+0.3 -0.8 92 -2  1019.4  -0.4  745  300           
03 19.02.17 240 (ЮЗ) 3{10}  10 км  {снег}  10/10 180 м 
[St]
+0.5 -0.9 90 -1  1018.2  -1  744  299      0.3   
06 19.02.17 230 (ЮЗ) 4{10}  10 км  {снег}  10/10 210 м 
[St]
+0.7 -0.4 92 -2  1016.9  -1.3  743  299  +0    0.3  равномерный
мокрый или
старый снег
100% 
09 19.02.17 240 (ЮЗ) 5-10{11}  8000 м  слаб. морось  10/10 150 м 
[St]
+0.9 +0.1 94 -2  1016.1  -0.7  742  298           
12 19.02.17 230 (ЮЗ) 6-12{12}  10 км  {морось}  10/10 240 м 
[St]
+1.3 -0.4 88 -2  1015.4  -0.7  742  297           
18 19.02.17 220 (ЮЗ) 6000 м  слаб. снег{ливн. осадки}  10/10 200 м 
[Frnb|Ns]
+0.1 -0.8 94 -2  1012.7  -0.4  740  298       
21 19.02.17 240 (ЮЗ) 5-10{10}  6000 м  слаб. морось{снег}  10/10 100 м 
[St]
+0.7 +0.1 96 -2  1011.8  -0.9  739  297           
00 20.02.17 230 (ЮЗ) 4{10}  1500 м  дымка{снег, морось}  10/10 100 м 
[St]
+1.1 +0.6 96 -1  1010.7  -1  738  296           
03 20.02.17 220 (ЮЗ) 4{10}  1500 м  дымка  10/10 100 м 
[St]
+1.3 +0.8 96 -1  1009.3  -1.4  737  296      0.5   
06 20.02.17 230 (ЮЗ) 2{10}  2500 м  дымка  10/10 100 м 
[St]
+1.3 +0.8 96 +1  1007.7  -1.5  736  295  +0.1    0.5  равномерный
мокрый или
старый снег
100% 
09 20.02.17 210 (ЮЗ) 6000 м  слаб. дождь  10/10 120 м 
[Frnb|Ns]
+1.9 +1.1 94 1005.9  -1.7  735  294           
12 20.02.17 220 (ЮЗ) 5{11}  7000 м  слаб. дождь  10/10 270 м 
[Frnb|Ns]
+2.4 +1.4 93 1003.2  -2.5  733  293           
Время (UTC), дата Ветер
(°,м/с) 
Видим.   Явления Облачность Т
(°С)
Тd
(°С)
f(%) Тe
(°С)
Pmin
(гПа)
dP
(гПа)
Po
(мм)
O2
(г/м3)
Тmin Tmax R s Состояние
почвы

Для получения пояснительной информации подведите курсор к названию столбца.

ПОГОДА Лынтупы - архив

Всё, что Вы хотите узнать о погоде Лынтупы - удобно и подробно!

Выберите нужную дату (начиная с 1 января 2015* года) и нажмите кнопку "Найти".
Будут отображены архивные сводки погоды по пункту Лынтупы, начиная с указанной даты.


Отображать данные в формате CSV (для использования в таблицах Excel)


Внимание! Наш архив погоды предназначен исключительно для личного некоммерческого использования в познавательных целях. Если Вам необходимы официальные справки о состоянии погоды (для производственных, юридических, коммерческих и т.п. целей), обращайтесь в органы Росгидромета.

*Примечание: данная дата относится к архиву по метеостанциям СССР (Россия, СНГ, Балтия).
Архив по метеостанциям Зарубежной Европы и Азии (кроме Китая) хранится 10 дней, по другим регионам земного шара (Китай, Африка, Америка, Австралия, Океания) - 1 день.

Лынтупы - район местоположения метеостанции


Название, широта, долгота, высота метеостанции:
Лынтупы 55.1°ш. 26.3°д. 212 м над ур. моря [Беларусь]

Дополнительная информация

В oтличие oт бoльшинства пoгoдных сайтoв мы публикуем пoдрoбную метеoинфoрмацию в детальнoм прoфессиoнальнoм фoрмате.

Характеристики температуры и влажнoсти вoздуха измеряются на высoте 2 м в тени вдали oт зданий и деревьев.
Скoрoсть ветра измеряется на высoте 10 м (на урoвне рoста челoвека скoрoсть ветра ниже в 1.5-2 раза). Если метеoстанция нахoдится в гoрoде или в лесу, тo скoрoсть ветра занижена на 2-4 м/с пo сравнению с oткрытым местoм. Скoрoсть ветра над акватoриями крупных рек и oзёр, а также на вершинах хoлмoв на 2-5 м/с выше, чем в oбычных услoвиях.
Атмoсфернoе давление в разных тoчках местнoсти мoжет значительнo oтличаться oт давления на метеoстанции, в зависимoсти oт услoвий рельефа (при пoдъёме на 10 м давление пoнижается примернo на 1 мм рт.ст.).